(68637) = 2002 CU26

Discovered at Socorro on 2002-02-06 by LINEAR.

Orbit

Orbit type: Phocaea

Note: WebGL enabled browser required.

epoch2024-03-31.0
epoch JD2460400.5
perihelion date2022-06-20.03138
perihelion JD2459750.53138
argument of perihelion (°)208.36937
ascending node (°)104.89423
inclination (°)12.42652
eccentricity0.0662586
perihelion distance (AU)2.2271147
Tisserand w.r.t. Jupiter3.5
ΔV w.r.t. Earth (km/sec)10.1
semimajor axis (AU)2.3851517
mean anomaly (°)173.90907
mean daily motion (°/day)0.26756530
aphelion distance (AU)2.543
period (years)3.68
P-vector [x]0.67459835
P-vector [y]-0.63007156
P-vector [z]-0.38461265
Q-vector [x]0.70828718
Q-vector [y]0.69925722
Q-vector [z]0.09679162
absolute magnitude15.84
phase slope0.15
uncertainty0
referenceMPEC 2024-E179
observations used981
oppositions19
arc length (days)9104
first opposition used1999
last opposition used2024
residual rms (arc-secs)0.69
perturbers coarse indicatorM-v
perturbers precise indicator003Ek
first observation date used1999-04-10.0
last observation date used2024-03-13.0
computer nameMPCLINUX
JD of orbit computation2456966.760356
perihelion JD uncertainty (days)1.4072E-04
argument of perihelion uncertainty (°)4.2128E-05
ascending node uncertainty (°)1.9835E-05
inclination uncertainty (°)4.0943E-06
eccentricity uncertainty 3.9513E-08
perihelion distance uncertainty (AU)1.0145E-07
Minimum Orbit Intersection Distances (in AU)
for orbit epoch: 2460400.5, reference: E2024-GB3
Mercury1.7888
Venus1.50019
Earth1.21786
Mars0.81658
Jupiter2.63044
Saturn6.53481
Uranus15.9529
Neptune27.4599

Observations

996 total observations over interval: 1999 04 10.32597 – 2024 03 13.146730
These data are available for download (format description).

Date (UT) J2000 RA J2000 Dec Magn Location Ref
1999 04 10.32597 13 53 44.17 +10 29 43.1 19.5   704 – Lincoln Laboratory ETS, New Mexico MPS 55360
1999 04 10.34520 13 53 43.32 +10 29 50.5 19.3   704 – Lincoln Laboratory ETS, New Mexico MPS 55360
1999 04 10.36393 13 53 42.19 +10 29 57.0 19.3   704 – Lincoln Laboratory ETS, New Mexico MPS 55360
1999 04 10.38265 13 53 41.13 +10 30 01.9 19.3   704 – Lincoln Laboratory ETS, New Mexico MPS 55360
2000 09 20.26311 00 00 36.16 -22 19 19.3 18.6   704 – Lincoln Laboratory ETS, New Mexico MPS 81470
2000 09 20.26410 00 00 36.09 -22 19 19.4 18.3   704 – Lincoln Laboratory ETS, New Mexico MPS 81470
2000 09 20.27789 00 00 35.32 -22 19 25.0 19.1   704 – Lincoln Laboratory ETS, New Mexico MPS 81470
2000 09 20.27889 00 00 35.28 -22 19 25.2 18.3   704 – Lincoln Laboratory ETS, New Mexico MPS 81470
2000 09 20.29275 00 00 34.51 -22 19 30.5 18.9   704 – Lincoln Laboratory ETS, New Mexico MPS 81470
2000 09 20.29375 00 00 34.44 -22 19 30.9 18.4   704 – Lincoln Laboratory ETS, New Mexico MPS 81470
2000 09 20.30851 00 00 33.69 -22 19 35.9 18.8   704 – Lincoln Laboratory ETS, New Mexico MPS 81470
2000 09 30.23666 23 51 51.24 -23 08 55.8 18.4 R 699 – Lowell Observatory-LONEOS MPS 55360
2000 09 30.24707 23 51 50.66 -23 08 57.2   699 – Lowell Observatory-LONEOS MPS 55360
2000 09 30.25749 23 51 50.15 -23 08 59.9   699 – Lowell Observatory-LONEOS MPS 55360
2000 09 30.26792 23 51 49.55 -23 09 01.2   699 – Lowell Observatory-LONEOS MPS 55360
2001 12 18.47631 08 46 49.29 +20 43 44.8 20.2   704 – Lincoln Laboratory ETS, New Mexico MPS 55360
2001 12 18.49329 08 46 48.82 +20 43 52.5 19.9   704 – Lincoln Laboratory ETS, New Mexico MPS 55360
2001 12 18.50873 08 46 48.56 +20 43 58.8 20.2   704 – Lincoln Laboratory ETS, New Mexico MPS 55360
2002 01 08.30813 08 33 24.70 +23 31 25.6 19.2   704 – Lincoln Laboratory ETS, New Mexico MPS 55360
2002 01 08.32304 08 33 23.84 +23 31 33.3 18.9   704 – Lincoln Laboratory ETS, New Mexico MPS 55360
2002 01 08.33796 08 33 23.01 +23 31 40.8 19.1   704 – Lincoln Laboratory ETS, New Mexico MPS 55360
2002 01 08.36781 08 33 21.35 +23 31 56.2 19.9   704 – Lincoln Laboratory ETS, New Mexico MPS 55360
2002 01 20.26836 08 21 25.86 +25 15 48.2 18.3 R 699 – Lowell Observatory-LONEOS MPS 55360
2002 01 20.29580 08 21 24.09 +25 16 02.3   699 – Lowell Observatory-LONEOS MPS 55360
2002 01 20.32332 08 21 22.25 +25 16 16.8   699 – Lowell Observatory-LONEOS MPS 55360
2002 01 20.35099 08 21 20.35 +25 16 29.9   699 – Lowell Observatory-LONEOS MPS 55360
2002 01 21.23568 08 20 23.96 +25 23 55.0 19.0   704 – Lincoln Laboratory ETS, New Mexico MPS 55360
2002 01 21.25045 08 20 22.98 +25 24 02.9 19.5   704 – Lincoln Laboratory ETS, New Mexico MPS 55360
2002 01 21.28019 08 20 20.95 +25 24 17.9 19.5   704 – Lincoln Laboratory ETS, New Mexico MPS 55360
2002 01 21.29500 08 20 20.00 +25 24 25.3 18.9   704 – Lincoln Laboratory ETS, New Mexico MPS 55360
2002 02 06.24661 08 03 46.35 +27 21 42.3 19.1   704 – Lincoln Laboratory ETS, New Mexico MPS 50145
2002 02 06.26159 08 03 45.45 +27 21 48.0 20.0   704 – Lincoln Laboratory ETS, New Mexico MPS 50145
2002 02 06.27647 08 03 44.59 +27 21 53.6 19.8   704 – Lincoln Laboratory ETS, New Mexico MPS 50145
2002 02 06.29177 08 03 43.69 +27 21 58.9 19.3   704 – Lincoln Laboratory ETS, New Mexico MPS 50145
2002 02 06.30665 08 03 42.96 +27 22 04.6 19.6   704 – Lincoln Laboratory ETS, New Mexico MPS 50145
2002 02 08.30503 08 01 51.20 +27 34 00.2 18.9   704 – Lincoln Laboratory ETS, New Mexico MPS 50145
2002 02 08.31938 08 01 50.43 +27 34 04.6 19.8   704 – Lincoln Laboratory ETS, New Mexico MPS 50145
2002 02 08.33373 08 01 49.56 +27 34 10.0 20.3   704 – Lincoln Laboratory ETS, New Mexico MPS 50145
2002 02 08.34807 08 01 48.79 +27 34 15.4 19.5   704 – Lincoln Laboratory ETS, New Mexico MPS 50145
2002 02 08.36243 08 01 47.95 +27 34 19.8 19.2   704 – Lincoln Laboratory ETS, New Mexico MPS 50145
2002 02 12.24452 07 58 26.00 +27 55 29.0 19.6   704 – Lincoln Laboratory ETS, New Mexico MPS 50145
2002 02 12.27530 07 58 24.50 +27 55 38.6 18.9   704 – Lincoln Laboratory ETS, New Mexico MPS 50145
2002 02 12.29002 07 58 23.76 +27 55 41.6 19.7   704 – Lincoln Laboratory ETS, New Mexico MPS 50145
2002 02 12.30609 07 58 22.97 +27 55 46.1 19.4   704 – Lincoln Laboratory ETS, New Mexico MPS 50145
2003 05 08.55079 16 39 26.32 -06 56 46.5 20.9   608 – Haleakala-AMOS MPS 80055
2003 05 08.56172 16 39 25.74 -06 56 45.9 19.9   608 – Haleakala-AMOS MPS 80055
2003 05 08.57285 16 39 25.20 -06 56 45.6 19.6   608 – Haleakala-AMOS MPS 80055
2003 05 09.34990 16 38 49.26 -06 56 19.4 19.2   704 – Lincoln Laboratory ETS, New Mexico MPS 80055
2003 05 09.36181 16 38 48.61 -06 56 18.8 19.0   704 – Lincoln Laboratory ETS, New Mexico MPS 80055
2003 05 09.37354 16 38 47.99 -06 56 18.9 19.3   704 – Lincoln Laboratory ETS, New Mexico MPS 80055
2003 05 25.87969 16 23 25.09 -07 06 10.8 18.3 R 106 – Crni Vrh MPS 80055
2003 05 25.89247 16 23 24.33 -07 06 12.1 18.1 R 106 – Crni Vrh MPS 80055
2003 05 25.90531 16 23 23.44 -07 06 13.4 18.3 R 106 – Crni Vrh MPS 80055
2003 06 06.27242 16 11 42.09 -07 37 23.3 18.5   704 – Lincoln Laboratory ETS, New Mexico MPS 80055
2003 06 06.28259 16 11 41.53 -07 37 25.0 18.3   704 – Lincoln Laboratory ETS, New Mexico MPS 80055
2003 06 06.29280 16 11 40.92 -07 37 27.7 18.2   704 – Lincoln Laboratory ETS, New Mexico MPS 80055
2003 06 06.30307 16 11 40.29 -07 37 29.2 18.3   704 – Lincoln Laboratory ETS, New Mexico MPS 80055
2003 06 06.31326 16 11 39.69 -07 37 31.3 18.6   704 – Lincoln Laboratory ETS, New Mexico MPS 80055
2003 06 25.27360 15 55 49.39 -09 13 58.6 19.2   644 – Palomar Mountain/NEAT MPS 81470
2003 06 25.29403 15 55 48.60 -09 14 06.5 18.7   644 – Palomar Mountain/NEAT MPS 81470
2003 06 25.31588 15 55 47.75 -09 14 14.7 18.2   644 – Palomar Mountain/NEAT MPS 81470
2003 06 26.43110 15 55 07.26 -09 21 24.1 20.6   608 – Haleakala-AMOS MPS 81470
2003 06 26.44167 15 55 06.83 -09 21 27.4 19.8   608 – Haleakala-AMOS MPS 81470
2003 06 26.45256 15 55 06.47 -09 21 31.9 20.0   608 – Haleakala-AMOS MPS 81470
2004 09 14.41185 03 18 33.91 +00 01 06.9 19.3 R 699 – Lowell Observatory-LONEOS MPS 120986
2004 09 14.42894 03 18 34.02 +00 01 02.7   699 – Lowell Observatory-LONEOS MPS 120986
2004 09 14.44601 03 18 34.16 +00 00 57.5   699 – Lowell Observatory-LONEOS MPS 120986
2004 09 14.46306 03 18 34.27 +00 00 53.1   699 – Lowell Observatory-LONEOS MPS 120986
2004 09 24.459207 03 18 26.515 -00 50 36.91 19.37 V 645 – Apache Point-Sloan Digital Sky Survey MPS 389645
2004 09 24.462679 03 18 26.472 -00 50 38.08 20.19   645 – Apache Point-Sloan Digital Sky Survey MPS 389645
2004 10 07.33782 03 13 42.20 -02 01 33.6 18.9   704 – Lincoln Laboratory ETS, New Mexico MPS 116257
2004 10 07.34844 03 13 41.78 -02 01 37.0 19.4   704 – Lincoln Laboratory ETS, New Mexico MPS 116257
2004 10 07.35907 03 13 41.44 -02 01 40.1 19.4   704 – Lincoln Laboratory ETS, New Mexico MPS 116257
2004 10 07.36969 03 13 41.03 -02 01 43.3 19.4   704 – Lincoln Laboratory ETS, New Mexico MPS 116257
2004 10 18.30655 03 05 55.86 -02 56 45.3 18.9   704 – Lincoln Laboratory ETS, New Mexico MPS 118212
2004 10 18.31784 03 05 55.32 -02 56 48.3 18.8   704 – Lincoln Laboratory ETS, New Mexico MPS 118212
2004 10 18.32913 03 05 54.71 -02 56 52.3 19.1   704 – Lincoln Laboratory ETS, New Mexico MPS 118212
2004 10 18.34041 03 05 54.09 -02 56 54.1 18.7   704 – Lincoln Laboratory ETS, New Mexico MPS 118212
2004 10 18.35169 03 05 53.56 -02 56 58.3 19.4   704 – Lincoln Laboratory ETS, New Mexico MPS 118212
2004 11 06.24938 02 47 38.41 -03 50 25.5 18.8   704 – Lincoln Laboratory ETS, New Mexico MPS 119695
2004 11 06.26124 02 47 37.71 -03 50 27.3 18.6   704 – Lincoln Laboratory ETS, New Mexico MPS 119695
2004 11 06.27310 02 47 36.96 -03 50 27.0 18.7   704 – Lincoln Laboratory ETS, New Mexico MPS 119695
2004 11 06.28496 02 47 36.21 -03 50 28.0 18.3   704 – Lincoln Laboratory ETS, New Mexico MPS 119695
2004 11 12.25018 02 41 36.87 -03 51 11.5 18.4   704 – Lincoln Laboratory ETS, New Mexico MPS 119695
2004 11 12.26211 02 41 36.09 -03 51 10.7 19.0   704 – Lincoln Laboratory ETS, New Mexico MPS 119695
2004 11 12.28597 02 41 34.72 -03 51 10.1 19.3   704 – Lincoln Laboratory ETS, New Mexico MPS 119696
